Location: Feigenhofen
(48.4939°N, 10.7793°E)
Time: 16:18:30
(UTC+00:00)

Cosmos 2219 Rocket - Pass Details

Date: 26 May 2022
Orbit: 827 x 847 km, 71.0° (Epoch: 28 June)

Event Time Altitude Azimuth Distance (km) Brightness Sun altitude
Exits shadow 00:43:14 10° 258° (WSW) 2,433 4.3 -17.6°
Reaches altitude 10° 00:43:14 10° 258° (WSW) 2,432 4.3 -17.6°
Maximum altitude 00:47:52 26° 315° (NW) 1,573 3.8 -17.3°
Drops below altitude 10° 00:52:33 10° 11° (N) 2,448 5.8 -17.0°
Sets 00:55:24 0° 24° (NNE) 3,387 7.2 -16.8°
